EWG5 EDDB-EDDK

Flight info

Callsign EWG5
Flight time N/A
Altitude 34000
Route KISUC1N KISUC Z20 MAG Z92 ABGUS DCT TOLTA DCT PODER Z189 RUNER/N0405F240 T858 KOPAG KOPAG1C
Aircraft A320/M-SDE3FGHIRWY/LB1

Departure

Time N/A
Airport Berlin Brandenburg Airport (EDDB)

Arrival

Time 2026-04-24 18:59
Airport Cologne Bonn Airport (EDDK)
Time Latitude Longitude Altitude Speed Heading
2026-04-24 18:54 50.75526 7.30977 2985 ft 158 kts 319°
2026-04-24 18:55 50.77086 7.28733 2574 ft 145 kts 319°
2026-04-24 18:55 50.77816 7.27683 2408 ft 140 kts 319°
2026-04-24 18:55 50.78527 7.26660 2202 ft 137 kts 319°
2026-04-24 18:56 50.79230 7.25647 2018 ft 136 kts 319°
2026-04-24 18:56 50.79930 7.24640 1826 ft 136 kts 319°
2026-04-24 18:56 50.80625 7.23626 1633 ft 137 kts 319°
2026-04-24 18:56 50.81333 7.22610 1459 ft 138 kts 319°
2026-04-24 18:57 50.82045 7.21591 1276 ft 139 kts 318°
2026-04-24 18:57 50.82753 7.20564 1037 ft 137 kts 318°
2026-04-24 18:57 50.83455 7.19552 876 ft 136 kts 317°
2026-04-24 18:57 50.84155 7.18536 707 ft 136 kts 317°
2026-04-24 18:58 50.84852 7.17520 524 ft 135 kts 317°
2026-04-24 18:58 50.85550 7.16530 356 ft 134 kts 317°
2026-04-24 18:58 50.86203 7.15579 292 ft 113 kts 317°
2026-04-24 18:58 50.86697 7.14865 270 ft 85 kts 317°
2026-04-24 18:59 50.87088 7.14298 252 ft 69 kts 318°
2026-04-24 18:59 50.87407 7.13838 241 ft 57 kts 317°
2026-04-24 18:59 50.87674 7.13449 239 ft 49 kts 317°
2026-04-24 18:59 50.87933 7.13068 239 ft 39 kts 317°
2026-04-24 19:00 50.88003 7.12805 238 ft 8 kts 262°
2026-04-24 19:00 50.87990 7.12725 238 ft 1 kts 256°
2026-04-24 19:00 50.87986 7.12688 234 ft 0 kts 261°
2026-04-24 19:00 50.87985 7.12685 233 ft 2 kts 261°
2026-04-24 19:01 50.87972 7.12595 233 ft 11 kts 251°
2026-04-24 19:01 50.87947 7.12506 232 ft 0 kts 237°
2026-04-24 19:02 50.87942 7.12489 234 ft 0 kts 243°
2026-04-24 19:02 50.87937 7.12474 233 ft 1 kts 248°
2026-04-24 19:02 50.87936 7.12459 232 ft 0 kts 259°
2026-04-24 19:03 50.87936 7.12458 232 ft 0 kts 259°